Burlington, CO

1:05 AM MDT on April 24, 2017 (GMT -0600)
Kit Carson County

Weather History for KITR - August, 2013

Change the Weather History Date:

Friday, August 16, 2013

  Actual Average Record
Temperature  
Mean Temperature 72 °F 72 °F  
Max Temperature 84 °F 86 °F 100 °F (2002)
Min Temperature 59 °F 59 °F 50 °F (1930)
Cooling Degree Days 6    
Growing Degree Days 21 (Base 50)    
Moisture  
Dew Point 62 °F    
Average Humidity 75    
Maximum Humidity 93    
Minimum Humidity 51    
Precipitation  
Precipitation 0.00 in 0.08 in 1.20 in (1983)
Month to date precipitation 1.86 1.29  
Year to date precipitation 10.39 13.03  
Sea Level Pressure  
Sea Level Pressure 30.03 in    
Wind  
Wind Speed 8 mph (SSE)    
Max Wind Speed 12 mph    
Max Gust Speed 17 mph    
Visibility 10 miles    
Events      
T = Trace of Precipitation, MM = Missing Value Source: NWS Daily Summary

Daily Weather History Graph

Daily Weather History Graph

Search for Another Location

Airport or City:

Trip Planner

Search our weather history database for the weather conditions in past years. The results will help you decide how hot, cold, wet, or windy it might be!

Date:

Astronomy

Aug. 16, 2013 Rise Set
Actual Time 6:03 AM MDT 7:42 PM MDT
Civil Twilight 5:34 AM MDT 8:11 PM MDT
Nautical Twilight 5:00 AM MDT 8:45 PM MDT
Astronomical Twilight 4:23 AM MDT 9:22 PM MDT
Moon 4:02 PM MDT (8/16) 1:08 AM MDT (8/16)
Length of Visible Light 14h 36m
Length of Day
13h 39m
Waxing Gibbous, 75% of the Moon is Illuminated
Aug 16
Waxing Gibbous
Aug 20
Full
Aug 28
Last Quarter
Sep 5
New
Sep 12
First Quarter

Hourly Weather History & Observations

Time (MDT) Temp. Heat Index Dew Point Humidity Pressure Visibility Wind Dir Wind Speed Gust Speed Precip Events Conditions
12:53 AM 61.0 °F - 57.0 °F 87% 30.02 in 10.0 mi SW 6.9 mph - N/A   Clear
1:53 AM 61.0 °F - 57.9 °F 90% 30.00 in 10.0 mi WSW 5.8 mph - N/A   Clear
2:53 AM 62.1 °F - 57.9 °F 86% 29.99 in 10.0 mi WSW 6.9 mph - N/A   Clear
3:53 AM 62.1 °F - 57.9 °F 86% 29.99 in 10.0 mi WSW 6.9 mph - N/A   Clear
4:53 AM 60.1 °F - 57.9 °F 93% 29.99 in 9.0 mi WSW 6.9 mph - N/A   Clear
5:53 AM 61.0 °F - 57.9 °F 90% 29.99 in 9.0 mi WSW 5.8 mph - N/A   Clear
6:53 AM 60.1 °F - 57.9 °F 93% 30.02 in 5.0 mi ESE 4.6 mph - N/A   Clear
7:53 AM 64.9 °F - 61.0 °F 87% 30.04 in 8.0 mi East 5.8 mph - N/A   Clear
8:53 AM 68.0 °F - 62.1 °F 81% 30.05 in 10.0 mi East 8.1 mph - N/A   Clear
9:53 AM 72.0 °F - 63.0 °F 73% 30.05 in 10.0 mi SE 8.1 mph - N/A   Partly Cloudy
10:24 AM 71.6 °F - 64.4 °F 78% 30.19 in 10.0 mi ESE 5.8 mph - N/A   Mostly Cloudy
10:53 AM 73.9 °F - 64.0 °F 71% 30.06 in 10.0 mi SSE 11.5 mph - N/A   Mostly Cloudy
11:24 AM 75.2 °F - 64.4 °F 69% 30.19 in 10.0 mi SE 10.4 mph 16.1 mph N/A   Scattered Clouds
11:53 AM 75.0 °F - 64.0 °F 69% 30.05 in 10.0 mi SE 9.2 mph - N/A   Partly Cloudy
12:53 PM 78.1 °F - 64.9 °F 64% 30.03 in 10.0 mi SSE 9.2 mph 17.3 mph N/A   Partly Cloudy
1:53 PM 80.1 °F 81.9 °F 64.9 °F 60% 30.01 in 10.0 mi SSE 10.4 mph - N/A   Clear
2:53 PM 82.0 °F 83.4 °F 64.0 °F 54% 30.00 in 10.0 mi South 8.1 mph - N/A   Clear
3:53 PM 82.9 °F 84.0 °F 63.0 °F 51% 29.99 in 10.0 mi South 9.2 mph - N/A   Clear
4:53 PM 82.9 °F 84.0 °F 63.0 °F 51% 29.98 in 10.0 mi SE 9.2 mph - N/A   Clear
5:53 PM 81.0 °F 82.2 °F 63.0 °F 54% 29.98 in 10.0 mi SE 10.4 mph - N/A   Clear
6:53 PM 79.0 °F - 63.0 °F 58% 29.99 in 10.0 mi SE 8.1 mph - N/A   Clear
7:53 PM 73.0 °F - 63.0 °F 71% 30.01 in 10.0 mi SE 6.9 mph - N/A   Clear
8:53 PM 71.1 °F - 63.0 °F 75% 30.02 in 10.0 mi SE 10.4 mph - N/A   Clear
9:53 PM 68.0 °F - 64.0 °F 87% 30.04 in 10.0 mi ESE 9.2 mph - N/A   Clear
10:53 PM 66.9 °F - 64.0 °F 90% 30.04 in 10.0 mi ESE 8.1 mph - N/A   Clear
11:53 PM 66.0 °F - 64.0 °F 93% 30.04 in 8.0 mi SE 8.1 mph - N/A   Clear